Regional Weather Roundup
Issued by NWS

Home | Current Version | Previous Version | Text Only | Print | Product List | Glossary On
Versions: 1 2 3 4 5 6 7 8 9 10 11 12 13 14 15 16 17 18 19 20 21 22 23 24 25 26 27
000
ASCA42 TJSJ 260310
RWRPR
PUERTO RICO/U.S. VIRGIN ISLANDS HOURLY WEATHER ROUNDUP
NATIONAL WEATHER SERVICE SAN JUAN PR
1100 PM AST SUN JUN 25 2017

PRZ001>002-007>008-010-260400-
PUERTO RICO

CITY           SKY/WX    TMP DP  RH WIND       PRES   REMARKS
SAN JUAN LMM   LGT RAIN  75  72  88 NE3       30.11F
PONCE          LGT RAIN  73  72  94 E7        30.12
AGUADILLA      CLOUDY    79  75  89 E3        30.10R
CEIBA          PTCLDY    75  73  94 SW5       30.12F
$$

VIZ001>002-260400-
U.S. VIRGIN ISLANDS

CITY           SKY/WX    TMP DP  RH WIND       PRES   REMARKS
CHARLOTTE AMA  CLEAR     84  75  74 E10       30.08F HX  92
CHRISTIANSTED  LGT RAIN  77  75  94 NE6       30.09S
$$

HOURLY WEATHER ROUNDUP FOR THE NEWS MEDIA

CITY           SKY/WX    TMP DP  RH WIND       PRES   REMARKS
ORLANDO        CLOUDY    80  75  84 S6        30.11R
NEW YORK       CLOUDY    71  68  90 S7        29.96R
NEWARK         CLOUDY    77  52  41 W9        29.96R
CHICAGO        PTCLDY    62  49  62 W8        30.10S
HARTFORD       MOCLDY    67  56  67 SW7       29.92F
BOSTON         CLOUDY    66  57  72 NW10      29.93F
DALLAS         PTCLDY    81  61  50 E8        30.15R
PHILADELPHIA   PTCLDY    77  49  37 W10       30.00R
LOS ANGELES    CLEAR     68  62  81 VRB6      29.88R
WASHINGTON DC  PTCLDY    69  46  43 W6        30.06R



USA.gov is the U.S. government's official web portal to all federal, state and local government web resources and services.